When you browse on this site, cookies collect data to enhance your experience and personalize the content and advertising you see.
Visit our Privacy Policy to learn more. By continuing to use the site, you agree to this use of cookies and data.
  • In Hungary
  • List of Countries
  • For 7 days
  • Water Temperature
  • Weather Map
  • News
  • Weather Widgets
  • user-avatar
    Login

    Hourly Weather Krasnosakmarsk

    Today, 21 October, Monday

    Time Temperature Precipitation Wind Pressure Humidity
    00:00 -2°C° 0 mm 3 mps 757 mmHg 59%
    01:00 -2°C° 0 mm 3 mps 757 mmHg 60%
    02:00 -3°C° 0 mm 2 mps 757 mmHg 61%
    03:00 -3°C° 0 mm 2 mps 757 mmHg 61%
    04:00 -3°C° 0 mm 2 mps 757 mmHg 62%
    05:00 -1°C° 0 mm 1 mps 757 mmHg 62%
    06:00 -1°C° 0 mm 1 mps 757 mmHg 61%
    07:00 -1°C° 0 mm 1 mps 757 mmHg 61%
    08:00 -2°C° 0 mm 2 mps 757 mmHg 55%
    09:00 -1°C° 0 mm 2 mps 756 mmHg 48%
    10:00 +2°C° 0 mm 2 mps 756 mmHg 42%
    11:00 +3°C° 0 mm 2 mps 756 mmHg 39%
    12:00 +4°C° 0 mm 2 mps 756 mmHg 37%
    13:00 +4°C° 0 mm 2 mps 756 mmHg 34%
    14:00 +4°C° 0 mm 2 mps 756 mmHg 36%
    15:00 +5°C° 0 mm 1 mps 755 mmHg 38%
    16:00 +5°C° 0 mm 1 mps 755 mmHg 41%
    17:00 +4°C° 0 mm 1 mps 755 mmHg 42%
    18:00 +4°C° 0 mm 1 mps 755 mmHg 44%
    19:00 +3°C° 0 mm 1 mps 755 mmHg 45%
    20:00 +3°C° 0 mm 1 mps 755 mmHg 47%
    21:00 +2°C° 0 mm 1 mps 754 mmHg 48%
    22:00 +2°C° 0 mm 1 mps 754 mmHg 49%
    23:00 +2°C° 0 mm 1 mps 754 mmHg 51%

    Tomorrow, 22 October, Tuesday

    Time Temperature Precipitation Wind Pressure Humidity
    00:00 +2°C° 0 mm 1 mps 753 mmHg 52%
    01:00 +2°C° 0 mm 1 mps 753 mmHg 53%
    02:00 +1°C° 0 mm 2 mps 753 mmHg 54%
    03:00 -1°C° 0 mm 2 mps 752 mmHg 54%
    04:00 -1°C° 0 mm 2 mps 752 mmHg 55%
    05:00 -1°C° 0 mm 2 mps 752 mmHg 55%
    06:00 -1°C° 0 mm 2 mps 752 mmHg 56%
    07:00 -1°C° 0 mm 2 mps 751 mmHg 56%
    08:00 +1°C° 0 mm 3 mps 751 mmHg 53%
    09:00 +2°C° 0 mm 3 mps 751 mmHg 50%
    10:00 +3°C° 0 mm 4 mps 750 mmHg 47%
    11:00 +4°C° 0 mm 4 mps 750 mmHg 46%
    12:00 +5°C° 0 mm 5 mps 750 mmHg 46%
    13:00 +6°C° 0 mm 5 mps 750 mmHg 45%
    14:00 +6°C° 0 mm 5 mps 749 mmHg 47%
    15:00 +6°C° 0 mm 5 mps 749 mmHg 49%
    16:00 +6°C° 0 mm 4 mps 749 mmHg 51%
    17:00 +6°C° 0 mm 4 mps 749 mmHg 53%
    18:00 +6°C° 0 mm 4 mps 749 mmHg 55%
    19:00 +5°C° 0 mm 4 mps 749 mmHg 57%
    20:00 +5°C° 0.1 mm 4 mps 748 mmHg 61%
    21:00 +5°C° 0.1 mm 3 mps 748 mmHg 65%
    22:00 +5°C° 0.1 mm 3 mps 748 mmHg 69%
    23:00 +5°C° 0.3 mm 3 mps 748 mmHg 73%

    Day after tomorrow, 23 October, Wednesday

    Time Temperature Precipitation Wind Pressure Humidity
    00:00 +5°C° 0.3 mm 3 mps 747 mmHg 76%
    01:00 +5°C° 0.3 mm 2 mps 747 mmHg 80%
    02:00 +5°C° 0.4 mm 2 mps 747 mmHg 82%
    03:00 +5°C° 0.4 mm 2 mps 747 mmHg 83%
    04:00 +5°C° 0.4 mm 2 mps 747 mmHg 85%
    05:00 +5°C° 0.1 mm 2 mps 747 mmHg 86%
    06:00 +5°C° 0.1 mm 2 mps 747 mmHg 87%
    07:00 +5°C° 0.1 mm 2 mps 747 mmHg 89%
    08:00 +6°C° 0 mm 2 mps 747 mmHg 88%
    09:00 +7°C° 0 mm 2 mps 747 mmHg 87%
    10:00 +7°C° 0 mm 2 mps 748 mmHg 86%
    11:00 +8°C° 0 mm 2 mps 747 mmHg 83%
    12:00 +9°C° 0 mm 2 mps 747 mmHg 79%
    13:00 +10°C° 0 mm 2 mps 747 mmHg 76%
    14:00 +10°C° 0 mm 2 mps 747 mmHg 75%
    15:00 +10°C° 0 mm 3 mps 747 mmHg 73%
    16:00 +10°C° 0 mm 3 mps 747 mmHg 72%
    17:00 +9°C° 0 mm 2 mps 747 mmHg 76%
    18:00 +8°C° 0 mm 2 mps 747 mmHg 80%
    19:00 +7°C° 0 mm 2 mps 747 mmHg 84%
    20:00 +7°C° 0 mm 2 mps 747 mmHg 85%
    21:00 +6°C° 0 mm 2 mps 747 mmHg 87%
    22:00 +6°C° 0 mm 2 mps 747 mmHg 88%
    23:00 +6°C° 0 mm 2 mps 747 mmHg 88%

    24 October, Thursday

    Time Temperature Precipitation Wind Pressure Humidity
    00:00 +6°C° 0 mm 2 mps 747 mmHg 89%
    01:00 +6°C° 0 mm 2 mps 747 mmHg 89%
    02:00 +5°C° 0 mm 3 mps 747 mmHg 90%
    03:00 +4°C° 0 mm 3 mps 747 mmHg 92%
    04:00 +4°C° 0 mm 3 mps 747 mmHg 94%
    05:00 +4°C° 0 mm 3 mps 747 mmHg 91%
    06:00 +4°C° 0 mm 3 mps 747 mmHg 89%
    07:00 +5°C° 0 mm 3 mps 747 mmHg 87%
    08:00 +5°C° 0 mm 3 mps 747 mmHg 85%
    09:00 +6°C° 0 mm 4 mps 747 mmHg 83%
    10:00 +6°C° 0 mm 4 mps 747 mmHg 80%
    11:00 +7°C° 0.1 mm 4 mps 747 mmHg 81%
    12:00 +7°C° 0.1 mm 4 mps 747 mmHg 81%
    13:00 +7°C° 0.1 mm 4 mps 747 mmHg 81%
    14:00 +8°C° 0.1 mm 3 mps 747 mmHg 82%
    15:00 +8°C° 0.1 mm 3 mps 747 mmHg 83%
    16:00 +8°C° 0.1 mm 2 mps 747 mmHg 84%
    17:00 +8°C° 0 mm 2 mps 747 mmHg 85%
    18:00 +8°C° 0 mm 2 mps 747 mmHg 85%
    19:00 +8°C° 0 mm 2 mps 747 mmHg 85%
    20:00 +9°C° 0 mm 1 mps 747 mmHg 87%
    21:00 +9°C° 0 mm 1 mps 747 mmHg 88%
    22:00 +8°C° 0 mm 1 mps 748 mmHg 90%
    23:00 +8°C° 0 mm 1 mps 748 mmHg 91%

    25 October, Friday

    Time Temperature Precipitation Wind Pressure Humidity
    00:00 +7°C° 0 mm 0 mps 747 mmHg 92%
    01:00 +6°C° 0 mm 0 mps 747 mmHg 93%
    02:00 +7°C° 0 mm 0 mps 747 mmHg 93%
    03:00 +7°C° 0 mm 0 mps 747 mmHg 93%
    04:00 +8°C° 0 mm 1 mps 747 mmHg 93%
    05:00 +8°C° 0 mm 1 mps 747 mmHg 94%
    06:00 +8°C° 0 mm 1 mps 747 mmHg 95%
    07:00 +8°C° 0 mm 1 mps 747 mmHg 96%
    08:00 +9°C° 0 mm 1 mps 748 mmHg 94%
    09:00 +10°C° 0 mm 1 mps 748 mmHg 92%
    10:00 +10°C° 0 mm 2 mps 748 mmHg 90%
    11:00 +10°C° 0 mm 2 mps 748 mmHg 85%
    12:00 +10°C° 0 mm 3 mps 748 mmHg 81%
    13:00 +11°C° 0 mm 3 mps 748 mmHg 76%
    14:00 +11°C° 0 mm 3 mps 747 mmHg 74%
    15:00 +10°C° 0 mm 3 mps 747 mmHg 72%
    16:00 +10°C° 0 mm 3 mps 747 mmHg 70%
    17:00 +10°C° 0 mm 3 mps 747 mmHg 74%
    18:00 +9°C° 0 mm 2 mps 747 mmHg 77%
    19:00 +9°C° 0 mm 1 mps 748 mmHg 80%
    20:00 +9°C° 0 mm 1 mps 748 mmHg 81%
    21:00 +9°C° 0 mm 1 mps 748 mmHg 82%
    22:00 +9°C° 0 mm 1 mps 748 mmHg 83%
    23:00 +9°C° 0 mm 1 mps 748 mmHg 86%

    26 October, Saturday

    Time Temperature Precipitation Wind Pressure Humidity
    00:00 +7°C° 0 mm 2 mps 748 mmHg 90%
    01:00 +7°C° 0 mm 2 mps 748 mmHg 93%
    02:00 +7°C° 0 mm 2 mps 748 mmHg 93%
    03:00 +6°C° 0 mm 2 mps 748 mmHg 94%
    04:00 +7°C° 0 mm 1 mps 749 mmHg 94%
    05:00 +7°C° 0 mm 1 mps 749 mmHg 94%
    06:00 +7°C° 0 mm 1 mps 749 mmHg 94%
    07:00 +6°C° 0 mm 1 mps 749 mmHg 94%
    08:00 +7°C° 0 mm 1 mps 750 mmHg 89%
    09:00 +9°C° 0 mm 1 mps 750 mmHg 83%
    10:00 +10°C° 0 mm 1 mps 750 mmHg 78%
    11:00 +10°C° 0 mm 2 mps 750 mmHg 74%
    12:00 +11°C° 0 mm 3 mps 750 mmHg 69%
    13:00 +12°C° 0 mm 4 mps 750 mmHg 65%
    14:00 +12°C° 0 mm 3 mps 750 mmHg 68%
    15:00 +12°C° 0 mm 3 mps 750 mmHg 72%
    16:00 +12°C° 0 mm 3 mps 749 mmHg 75%
    17:00 +12°C° 0 mm 3 mps 749 mmHg 78%
    18:00 +12°C° 0 mm 3 mps 749 mmHg 82%
    19:00 +12°C° 0 mm 3 mps 749 mmHg 85%
    20:00 +11°C° 0 mm 4 mps 749 mmHg 84%
    21:00 +11°C° 0 mm 4 mps 749 mmHg 84%
    22:00 +10°C° 0 mm 4 mps 748 mmHg 84%
    23:00 +9°C° 0 mm 5 mps 748 mmHg 80%

    27 October, Sunday

    Time Temperature Precipitation Wind Pressure Humidity
    00:00 +9°C° 0 mm 5 mps 748 mmHg 77%
    01:00 +8°C° 0 mm 5 mps 747 mmHg 73%
    02:00 +8°C° 0 mm 6 mps 747 mmHg 74%
    03:00 +8°C° 0 mm 6 mps 747 mmHg 74%
    04:00 +7°C° 0 mm 6 mps 747 mmHg 75%
    05:00 +7°C° 0 mm 6 mps 747 mmHg 77%
    06:00 +7°C° 0 mm 6 mps 747 mmHg 78%
    07:00 +7°C° 0 mm 5 mps 747 mmHg 80%
    08:00 +8°C° 0 mm 6 mps 747 mmHg 76%
    09:00 +9°C° 0 mm 6 mps 747 mmHg 73%
    10:00 +10°C° 0 mm 6 mps 747 mmHg 70%
    11:00 +11°C° 0 mm 6 mps 747 mmHg 66%
    12:00 +12°C° 0 mm 7 mps 747 mmHg 62%
    13:00 +14°C° 0 mm 7 mps 747 mmHg 58%
    14:00 +13°C° 0 mm 6 mps 746 mmHg 57%
    15:00 +13°C° 0 mm 6 mps 746 mmHg 57%
    16:00 +13°C° 0 mm 5 mps 746 mmHg 57%
    17:00 +12°C° 0 mm 5 mps 746 mmHg 60%
    18:00 +12°C° 0 mm 5 mps 746 mmHg 62%
    19:00 +10°C° 0 mm 5 mps 746 mmHg 65%
    20:00 +10°C° 0 mm 5 mps 745 mmHg 66%
    21:00 +9°C° 0 mm 5 mps 745 mmHg 67%
    22:00 +9°C° 0 mm 5 mps 745 mmHg 68%
    23:00 +9°C° 0 mm 5 mps 745 mmHg 67%
    Show more